TimeEDT,TemperatureF,Dew PointF,Humidity,Sea Level PressureIn,VisibilityMPH,Wind Direction,Wind SpeedMPH,Gust SpeedMPH,PrecipitationIn,Events,Conditions,WindDirDegrees,DateUTC
12:54 AM,63.0,57.0,81,29.91,10.0,Calm,Calm,-,N/A,,Mostly Cloudy,0,2013-08-03 04:54:00
1:54 AM,64.0,55.9,75,29.89,10.0,Calm,Calm,-,N/A,,Mostly Cloudy,0,2013-08-03 05:54:00
2:54 AM,62.1,57.9,86,29.88,6.0,Calm,Calm,-,0.03,Rain,Rain,0,2013-08-03 06:54:00
3:54 AM,62.1,60.1,93,29.88,10.0,Calm,Calm,-,0.03,Rain,Light Rain,0,2013-08-03 07:54:00
4:54 AM,62.1,59.0,90,29.89,6.0,Calm,Calm,-,0.04,Rain,Light Rain,0,2013-08-03 08:54:00
5:54 AM,63.0,60.1,90,29.91,8.0,Calm,Calm,-,0.00,,Overcast,0,2013-08-03 09:54:00
6:24 AM,62.6,60.8,94,29.93,9.0,Calm,Calm,-,0.00,Rain,Light Rain,0,2013-08-03 10:24:00
6:54 AM,63.0,60.1,90,29.91,7.0,Calm,Calm,-,0.01,Rain,Light Rain,0,2013-08-03 10:54:00
7:40 AM,62.6,60.8,94,29.93,8.0,Calm,Calm,-,0.01,,Overcast,0,2013-08-03 11:40:00
7:54 AM,63.0,60.1,90,29.92,8.0,East,3.5,-,0.01,Rain,Light Rain,80,2013-08-03 11:54:00
8:54 AM,64.0,60.1,87,29.92,10.0,Calm,Calm,-,0.00,Rain,Light Rain,0,2013-08-03 12:54:00
9:54 AM,64.9,62.1,90,29.92,9.0,Calm,Calm,-,0.00,,Scattered Clouds,0,2013-08-03 13:54:00
10:09 AM,66.2,62.6,88,29.92,9.0,Calm,Calm,-,N/A,,Scattered Clouds,0,2013-08-03 14:09:00
10:26 AM,66.2,62.6,88,29.92,10.0,Calm,Calm,-,N/A,,Mostly Cloudy,0,2013-08-03 14:26:00
10:54 AM,68.0,63.0,84,29.91,9.0,Calm,Calm,-,N/A,,Mostly Cloudy,0,2013-08-03 14:54:00
11:12 AM,69.8,64.4,83,29.92,10.0,SE,3.5,-,N/A,,Mostly Cloudy,140,2013-08-03 15:12:00
11:32 AM,71.6,64.4,78,29.91,10.0,Variable,3.5,-,N/A,,Scattered Clouds,0,2013-08-03 15:32:00
11:54 AM,73.0,64.0,73,29.90,10.0,Variable,3.5,-,N/A,,Scattered Clouds,0,2013-08-03 15:54:00
12:54 PM,77.0,62.1,60,29.88,10.0,WNW,4.6,-,N/A,,Scattered Clouds,290,2013-08-03 16:54:00
1:54 PM,80.1,59.0,48,29.87,10.0,WSW,9.2,-,N/A,,Scattered Clouds,250,2013-08-03 17:54:00
2:54 PM,82.0,51.1,34,29.85,10.0,WNW,5.8,-,N/A,,Partly Cloudy,290,2013-08-03 18:54:00
3:54 PM,82.0,48.9,31,29.85,10.0,NW,10.4,-,N/A,,Partly Cloudy,320,2013-08-03 19:54:00
4:54 PM,82.9,50.0,32,29.85,10.0,WNW,9.2,-,N/A,,Clear,290,2013-08-03 20:54:00
5:54 PM,82.0,50.0,33,29.85,10.0,NNW,8.1,-,N/A,,Clear,330,2013-08-03 21:54:00
6:54 PM,81.0,48.9,33,29.85,10.0,NW,4.6,-,N/A,,Clear,310,2013-08-03 22:54:00
7:54 PM,77.0,51.1,40,29.87,10.0,NNW,4.6,-,N/A,,Clear,330,2013-08-03 23:54:00
8:54 PM,70.0,55.0,59,29.89,10.0,Calm,Calm,-,N/A,,Clear,0,2013-08-04 00:54:00
9:54 PM,64.9,55.9,73,29.91,10.0,Calm,Calm,-,N/A,,Clear,0,2013-08-04 01:54:00
10:54 PM,62.1,57.0,84,29.92,10.0,WSW,4.6,-,N/A,,Clear,240,2013-08-04 02:54:00
11:54 PM,63.0,55.9,78,29.93,10.0,Calm,Calm,-,N/A,,Clear,0,2013-08-04 03:54:00